sat.trackr.live / text

‹ back to catalog

GAOFEN-1 03

NORAD 43260 · 2018-031B

PAYLOAD ACTIVE UNKNOWN

§ Identity

Operator
Country
PRC
Launch date
2018-03-31
Launch site
TAISC
Launch vehicle
Mass (kg)
RCS (m²)

Purposes: earth_obs

External: N2YO · Heavens-Above · Gunter

§ Orbital elements

Epoch: 2026-09-09T04:14:27.343968Z

Period
97.53 min
Inclination
98.0442°
Eccentricity
0.0003437
Mean motion
14.76478681 rev/d
Perigee alt
638.0 km
Apogee alt
642.9 km
Semi-major
7,018.6 km
B*
7.6232e-5
RAAN
314.2819°
Arg perigee
136.0195°
Mean anomaly
224.1288°
Rev number
45,508

§ Raw data

GAOFEN-1 031 43260U 18031B   26252.17670537  .00000479  00000+0  76232-4 0  99942 43260  98.0442 314.2819 0003437 136.0195 224.1288 14.76478681455085

JSON: /api/v1/satellites/43260 · /tle

For live sub-satellite position, see the globe view (requires WebGL).

§ Visibility from observer

Set your observer location to see the next 7 days of passes ≥ 10°. The values pass through the URL so the page stays shareable.

No JS? Fill the form by hand. The geolocation button needs JavaScript.